Wind_Speed
51 42 40 36 37 45 44 43 46 45 46 44 47 48 44 44 44 43 42 40 38 36 32 34 35 37 36 33 33 32 31 31 33 35 36 38 39 40 42 44 45 47 47 48
52 49 47 47 43 48 50 50 50 48 45 44 48 50 48 46 45 46 44 44 41 40 36 38 41 41 41 37 34 35 36 36 36 37 39 40 41 43 45 46 48 50 52 53
44 42 41 49 48 48 48 47 49 52 51 50 48 50 51 48 49 50 48 46 46 45 45 43 43 43 42 39 39 40 40 40 41 42 43 44 46 47 48 50 50 52 54 56
45 41 41 44 51 47 53 52 49 49 51 54 55 56 53 51 49 48 47 49 49 47 45 44 45 45 47 46 45 44 44 45 47 48 48 49 50 52 53 53 54 55 56 56
49 45 46 47 48 50 49 51 52 53 55 55 54 57 59 55 53 53 52 55 54 51 49 49 49 49 51 52 50 50 50 51 52 53 53 54 56 57 58 58 58 58 59 60
47 47 47 47 47 49 51 49 50 54 55 60 55 54 57 55 54 54 53 55 57 54 52 53 54 53 54 55 56 56 56 57 58 59 61 61 62 64 66 65 64 62 61 61
49 46 45 45 44 47 45 49 51 52 53 57 58 59 58 58 55 55 55 58 59 58 58 58 59 59 58 59 61 62 62 63 64 66 67 69 69 69 68 68 67 66 65 63
46 44 44 44 40 40 43 42 45 50 54 53 55 57 59 62 59 56 55 58 60 61 61 62 64 64 64 65 66 68 69 69 71 72 72 70 69 68 66 66 67 67 68 68
43 46 45 45 44 46 45 48 44 47 52 53 56 55 56 58 57 57 59 61 62 65 68 68 69 70 71 72 73 72 73 74 73 71 71 70 69 69 69 69 68 69 69 70
39 38 41 44 45 45 43 42 44 48 48 48 52 52 51 49 49 48 46 40 42 52 62 66 66 67 66 67 68 71 72 72 68 66 67 67 66 66 65 64 65 65 65 66
40 37 38 41 43 42 42 40 41 42 45 46 49 47 45 41 42 42 42 42 44 43 46 49 51 55 58 60 61 61 61 63 61 60 61 61 62 62 62 63 65 67 69 69
39 40 41 39 38 38 37 37 39 41 42 43 44 42 42 42 39 37 36 38 43 45 44 44 45 48 51 53 53 53 52 51 52 54 56 59 60 60 60 61 63 65 66 68
40 41 41 41 42 41 41 38 37 38 38 37 39 37 40 36 34 35 36 39 43 44 45 47 48 47 46 47 47 48 50 52 54 56 57 60 62 63 64 66 67 68 69 70
42 42 40 39 40 39 38 37 37 40 41 43 38 38 38 38 36 39 40 43 45 48 50 53 53 51 50 51 52 53 54 55 56 57 58 60 62 63 65 66 67 69 71 73
36 39 42 40 39 39 39 37 38 40 39 45 38 40 34 35 39 40 45 47 49 51 53 54 55 55 54 56 56 57 56 56 57 58 60 62 64 66 68 69 69 70 71 72
35 34 34 38 40 42 41 40 42 42 43 43 42 43 35 41 47 49 50 52 52 54 56 56 58 59 59 60 58 57 57 56 55 55 55 57 59 61 63 65 66 68 70 72
38 39 39 40 40 44 46 46 46 47 47 47 49 45 45 47 51 51 54 56 55 55 56 58 60 61 61 60 57 52 50 49 52 56 60 64 67 68 68 69 70 72 74 74
39 43 45 46 45 43 41 40 42 45 46 47 49 48 48 47 49 50 52 55 56 57 56 56 56 56 55 53 50 50 53 57 59 62 64 66 68 70 73 75 76 76 75 76
40 40 43 50 52 49 45 45 46 46 46 38 43 43 44 49 52 50 50 52 53 54 53 54 52 49 48 50 55 60 62 64 66 68 70 73 77 77 77 77 77 79 81 81
49 46 44 47 50 53 45 52 53 53 52 46 45 45 49 50 49 49 49 47 46 44 43 46 49 54 57 60 62 66 69 72 73 75 75 75 76 78 80 79 77 75 74 77
45 46 46 47 53 56 46 55 56 55 51 53 53 53 53 48 42 41 43 41 42 45 47 52 56 56 59 62 66 70 71 70 70 72 72 69 64 64 67 73 74 76 73 73
24 29 34 40 40 45 49 57 57 56 60 60 59 56 54 50 42 38 38 42 46 52 58 57 59 63 66 66 66 65 64 61 62 64 67 69 70 71 73 72 69 70 73 74
21 21 23 27 27 30 33 40 44 44 45 46 48 46 44 44 45 46 46 50 50 52 58 61 62 63 63 58 56 61 63 63 65 65 66 68 69 69 70 71 71 74 78 75
17 18 19 17 15 22 28 33 33 31 32 32 37 35 31 37 41 42 44 46 53 57 59 58 54 53 59 61 59 61 63 66 68 69 71 71 71 71 72 74 72 67 70 70
12 13 15 9 11 19 21 20 18 13 16 21 25 36 39 38 40 45 50 55 55 49 50 54 57 56 58 58 57 60 62 64 67 69 70 72 73 75 75 74 73 77 74 72
14 9 10 9 16 16 12 14 20 22 21 23 25 29 35 39 44 48 50 46 50 51 52 54 56 57 59 60 61 64 65 65 65 67 69 71 73 75 76 74 74 78 76 80
Wind_Direction
235 218 228 233 234 229 230 233 231 236 240 238 238 240 237 236 242 245 250 251 250 254 259 267 269 265 259 258 263 269 273 275 277 278 279 282 284 285 285 284 284 284 283 283
241 239 233 235 235 234 230 228 230 229 227 235 240 243 241 245 245 249 250 251 253 256 258 258 261 262 263 263 267 268 270 272 274 276 278 280 282 283 284 284 283 282 282 282
234 231 225 236 237 236 232 230 233 238 238 243 243 243 244 243 245 247 248 253 257 259 258 259 266 266 265 264 263 267 270 273 277 280 281 281 282 283 284 285 285 284 282 281
226 221 222 227 233 236 233 234 237 238 240 245 244 243 242 244 248 250 253 255 256 258 261 262 265 266 268 267 268 270 274 277 278 279 281 283 284 285 285 284 283 283 282 280
224 220 221 230 231 229 233 233 236 236 237 240 243 247 242 246 249 253 252 256 260 261 262 264 263 265 268 271 273 274 275 277 278 279 280 282 283 283 285 284 282 280 280 279
219 219 219 225 231 238 233 232 234 238 240 242 243 248 249 249 248 251 256 259 261 263 265 265 265 264 265 268 270 272 274 276 277 279 280 282 283 284 284 283 281 279 278 277
220 221 223 225 231 234 241 239 238 240 240 245 248 250 254 258 256 255 254 255 257 259 261 265 267 268 269 270 271 273 274 276 277 280 282 282 282 281 280 280 280 280 279 275
220 222 224 229 237 242 238 243 245 242 241 246 247 249 254 258 260 261 261 261 262 264 264 266 267 268 270 271 272 273 274 275 277 280 282 282 281 281 281 280 278 277 277 276
221 222 225 229 232 236 238 240 242 244 242 244 247 250 255 259 265 267 266 264 265 266 266 265 265 267 271 272 274 276 277 279 281 280 281 282 281 279 280 280 278 276 275 274
221 228 229 229 232 235 237 236 238 240 242 245 245 245 250 256 262 270 273 272 266 263 263 265 267 270 272 273 275 276 277 277 277 277 278 278 277 277 277 278 278 278 278 277
222 225 230 231 235 236 236 238 237 242 244 249 250 248 252 259 263 266 272 272 270 267 268 270 271 271 271 272 273 273 273 274 274 275 276 276 277 277 278 278 278 277 278 278
224 224 227 226 228 231 234 238 240 241 243 248 254 250 259 260 261 267 267 265 266 268 270 272 270 272 274 274 274 274 277 280 280 280 279 278 278 278 278 278 277 276 276 277
228 232 234 233 232 232 237 240 244 246 246 245 249 247 251 261 272 273 272 275 274 274 275 272 272 273 274 277 279 279 278 278 279 279 279 279 278 278 278 278 277 277 277 278
227 230 235 239 241 243 242 245 248 250 248 249 248 249 257 266 269 270 270 268 270 272 275 277 280 284 286 285 282 280 280 279 279 278 278 277 277 277 277 277 278 278 280 281
226 228 232 238 242 241 243 245 245 249 254 254 252 250 254 264 264 266 267 268 271 274 277 281 283 283 283 283 284 284 285 285 283 283 282 280 279 278 279 279 280 281 281 282
232 230 228 231 236 240 239 241 245 249 251 256 258 254 258 258 261 264 267 271 274 276 278 279 282 283 285 286 287 287 288 287 287 286 286 285 285 285 285 285 285 284 283 282
237 235 230 234 238 241 243 248 251 254 255 259 260 261 261 263 266 268 271 272 274 276 278 280 280 281 282 284 285 286 286 287 288 289 289 289 288 287 285 284 285 284 284 283
230 229 230 226 229 239 244 245 249 252 254 258 260 260 259 261 264 269 272 274 275 277 279 279 280 281 283 284 284 287 291 295 295 295 295 292 289 288 287 288 288 288 285 284
220 225 228 231 234 237 242 249 251 251 250 252 260 261 265 272 275 274 272 274 277 277 278 280 282 282 285 288 289 293 297 296 294 292 290 288 289 291 292 292 291 289 288 286
238 243 242 239 241 244 247 248 253 255 251 253 262 270 273 272 271 274 275 276 275 275 276 278 283 286 289 294 297 297 294 292 290 290 292 293 292 291 291 293 295 295 296 295
246 247 249 254 254 250 251 250 257 260 258 260 264 265 269 272 278 275 273 269 270 274 280 285 290 294 292 290 288 288 290 292 292 292 293 294 296 295 295 296 298 298 298 298
249 253 254 256 263 262 254 259 264 267 266 265 266 267 261 263 264 265 266 269 277 286 290 289 286 283 285 288 290 291 292 294 294 296 297 298 298 297 296 295 297 298 299 297
243 253 255 263 268 266 263 259 261 259 259 261 260 260 260 258 258 262 267 277 285 286 287 284 284 287 289 291 292 293 294 295 298 297 296 296 295 295 295 295 295 298 299 296
248 252 256 269 279 272 271 267 270 272 268 266 255 260 267 252 260 269 275 280 285 285 284 285 287 289 290 292 294 296 297 298 298 296 296 296 297 296 296 299 297 299 305 298
251 252 259 285 301 286 291 271 270 265 267 266 259 256 263 270 272 273 278 280 283 284 286 287 289 290 291 293 295 296 298 299 300 299 299 299 298 297 298 297 294 297 298 301
238 277 285 270 267 279 283 271 264 263 268 264 261 263 267 273 275 276 279 281 285 286 288 289 291 293 293 293 294 296 297 297 298 299 299 300 299 299 298 297 293 296 297 304
Height
5747 5758 5762 5769 5776 5781 5784 5788 5792 5798 5801 5804 5808 5812 5817 5818 5822 5825 5828 5831 5834 5839 5841 5841 5841 5840 5840 5840 5842 5843 5843 5843 5844 5843 5842 5841 5841 5840 5838 5837 5836 5833 5832 5831
5738 5748 5755 5759 5765 5770 5775 5779 5785 5790 5794 5795 5800 5805 5811 5812 5816 5819 5820 5822 5826 5828 5834 5832 5828 5830 5833 5835 5835 5835 5835 5836 5836 5835 5834 5833 5832 5831 5829 5827 5825 5824 5822 5820
5730 5740 5745 5749 5757 5763 5769 5774 5779 5782 5786 5788 5793 5797 5802 5805 5807 5810 5812 5815 5817 5818 5819 5823 5823 5823 5824 5826 5826 5826 5827 5827 5826 5826 5825 5824 5823 5822 5819 5817 5816 5814 5811 5809
5720 5730 5735 5742 5749 5754 5759 5765 5769 5772 5775 5778 5784 5786 5792 5798 5801 5803 5805 5806 5807 5807 5810 5813 5813 5814 5813 5814 5816 5816 5816 5816 5816 5815 5814 5813 5812 5810 5809 5806 5803 5801 5798 5796
5717 5725 5730 5734 5740 5744 5750 5755 5759 5762 5765 5769 5772 5775 5784 5789 5793 5795 5795 5796 5797 5798 5798 5800 5802 5803 5803 5803 5803 5805 5804 5804 5803 5803 5802 5801 5799 5797 5795 5794 5791 5788 5786 5783
5706 5715 5722 5728 5730 5734 5741 5745 5748 5752 5755 5756 5763 5767 5770 5778 5782 5785 5786 5787 5787 5788 5788 5789 5791 5791 5791 5792 5791 5791 5791 5790 5789 5789 5788 5787 5786 5784 5781 5778 5776 5774 5771 5769
5699 5706 5712 5718 5721 5725 5730 5735 5738 5741 5744 5750 5754 5757 5761 5764 5771 5774 5774 5776 5777 5777 5777 5777 5778 5778 5779 5779 5780 5779 5777 5776 5776 5775 5774 5773 5771 5768 5765 5762 5760 5757 5755 5753
5691 5698 5705 5710 5714 5719 5721 5725 5727 5731 5735 5740 5742 5745 5751 5751 5755 5759 5762 5763 5765 5767 5766 5765 5765 5764 5765 5766 5766 5766 5765 5764 5761 5760 5758 5756 5754 5752 5750 5747 5745 5742 5739 5736
5684 5690 5696 5701 5703 5707 5710 5714 5720 5721 5723 5726 5732 5739 5742 5743 5743 5743 5749 5750 5751 5752 5751 5751 5750 5749 5751 5751 5751 5751 5750 5748 5746 5743 5742 5740 5738 5735 5733 5731 5729 5727 5725 5722
5676 5681 5686 5691 5695 5698 5702 5708 5709 5711 5714 5718 5725 5730 5734 5737 5735 5732 5732 5733 5735 5734 5734 5736 5736 5736 5738 5738 5738 5737 5734 5732 5730 5728 5726 5724 5722 5720 5719 5716 5714 5712 5709 5706
5667 5674 5678 5681 5685 5690 5693 5695 5700 5705 5707 5709 5715 5720 5725 5727 5725 5723 5723 5724 5720 5720 5720 5724 5725 5725 5725 5724 5722 5720 5718 5716 5714 5713 5712 5710 5707 5705 5703 5700 5696 5693 5690 5687
5660 5664 5668 5673 5676 5679 5684 5689 5692 5695 5699 5704 5705 5714 5716 5716 5715 5714 5714 5713 5710 5710 5712 5714 5712 5710 5711 5712 5710 5709 5707 5703 5701 5699 5698 5695 5691 5688 5686 5682 5678 5675 5672 5669
5652 5655 5660 5664 5668 5672 5676 5682 5687 5689 5693 5698 5698 5710 5705 5707 5705 5704 5702 5700 5698 5697 5696 5695 5697 5699 5699 5698 5696 5694 5692 5690 5687 5686 5683 5679 5676 5672 5669 5666 5662 5658 5655 5651
5643 5648 5653 5657 5661 5665 5670 5674 5678 5679 5685 5686 5696 5698 5698 5697 5697 5693 5692 5688 5686 5684 5683 5682 5682 5683 5686 5684 5682 5679 5678 5677 5675 5672 5670 5666 5662 5659 5655 5650 5646 5642 5638 5634
5637 5642 5645 5648 5652 5657 5662 5666 5668 5672 5678 5674 5688 5687 5693 5691 5682 5681 5677 5676 5677 5676 5675 5674 5674 5673 5672 5669 5667 5664 5662 5660 5657 5654 5651 5649 5645 5642 5638 5633 5629 5624 5620 5615
5630 5634 5637 5641 5644 5648 5654 5656 5658 5662 5665 5668 5672 5678 5683 5676 5671 5670 5668 5668 5669 5667 5664 5662 5660 5658 5657 5655 5652 5648 5644 5642 5639 5635 5632 5628 5626 5623 5619 5615 5611 5606 5602 5598
5623 5626 5629 5633 5635 5639 5647 5649 5651 5653 5655 5658 5659 5669 5668 5666 5659 5660 5659 5658 5657 5655 5653 5651 5649 5646 5643 5640 5637 5633 5630 5628 5625 5622 5617 5613 5609 5606 5601 5596 5591 5585 5580 5576
5614 5617 5621 5625 5627 5631 5640 5640 5641 5641 5644 5645 5649 5655 5656 5654 5649 5650 5648 5647 5645 5643 5640 5637 5634 5632 5629 5626 5623 5620 5617 5613 5609 5605 5600 5594 5590 5586 5580 5575 5569 5564 5559 5554
5607 5609 5612 5615 5618 5624 5630 5633 5632 5630 5635 5636 5637 5640 5642 5640 5639 5638 5635 5634 5632 5629 5627 5624 5621 5618 5615 5613 5610 5605 5600 5595 5591 5586 5581 5574 5568 5564 5558 5553 5548 5542 5536 5531
5599 5601 5605 5607 5608 5612 5626 5621 5617 5616 5622 5631 5627 5630 5630 5629 5627 5625 5623 5621 5619 5617 5614 5611 5608 5605 5601 5597 5593 5587 5581 5576 5571 5565 5560 5553 5546 5541 5536 5531 5525 5519 5512 5506
5592 5594 5597 5597 5599 5604 5620 5610 5604 5605 5622 5615 5616 5619 5620 5617 5616 5614 5612 5609 5607 5604 5602 5599 5595 5589 5585 5581 5575 5570 5564 5558 5551 5546 5540 5534 5527 5521 5516 5511 5504 5497 5490 5484
5584 5586 5589 5590 5592 5598 5603 5598 5597 5598 5601 5602 5601 5604 5606 5606 5605 5603 5601 5599 5596 5594 5590 5585 5580 5574 5568 5564 5559 5552 5545 5540 5534 5528 5522 5516 5509 5501 5495 5489 5483 5476 5469 5463
5578 5581 5582 5584 5586 5586 5586 5583 5580 5583 5585 5587 5588 5589 5590 5593 5592 5591 5589 5587 5584 5581 5576 5570 5565 5559 5553 5547 5541 5537 5530 5523 5517 5510 5503 5497 5490 5482 5475 5469 5462 5455 5447 5440
5573 5574 5575 5576 5580 5576 5573 5572 5571 5572 5574 5576 5578 5580 5581 5581 5581 5581 5579 5576 5573 5567 5561 5555 5549 5543 5538 5532 5525 5519 5513 5506 5499 5492 5485 5478 5471 5464 5456 5448 5440 5432 5425 5418
5569 5570 5571 5572 5571 5568 5567 5564 5565 5566 5568 5569 5569 5571 5572 5572 5571 5569 5565 5562 5558 5552 5547 5542 5535 5529 5523 5516 5510 5503 5496 5489 5482 5475 5468 5460 5453 5446 5438 5430 5422 5413 5405 5397
5564 5566 5567 5567 5565 5564 5563 5561 5560 5561 5562 5562 5562 5562 5562 5560 5558 5555 5551 5547 5543 5537 5532 5526 5520 5514 5507 5501 5494 5487 5480 5473 5466 5459 5451 5443 5435 5427 5418 5409 5402 5391 5381 5372